Tracking 30995 objects as of 5-Jul-2025
HD Live streaming from Space Station
objects crossing your sky now

ATLAS 5 CENTAUR DEB

Track ATLAS 5 CENTAUR DEB now!


NORAD ID: 52943
Int'l Code: 2022-073D
Perigee: 36,213.0 km
Apogee: 36,284.9 km
Inclination: 2.9 °
Period: 1,459.4 minutes
Semi major axis: 42619 km
RCS: Unknown
Launch date: July 1, 2022
Source: United States (US)
Launch site: AIR FORCE EASTERN TEST RANGE (AFETR)

Note: This is SATELLITE DEBRIS
Your satellite tracking list
COSMOS 1275 DEB
Track 1 satellite(s)




NASA's NSSDC Master Catalog

Two Line Element Set (TLE):
1 52943U 22073D   25185.73446342  .00000043  00000-0  00000-0 0  9998
2 52943   2.8525  83.3379 0008430  39.9102 319.7790  0.98669692  8200
Source of the keplerian elements: AFSPC